Regional Weather Roundup
Issued by NWS

Home | Current Version | Previous Version | Graphics & Text | Print | Product List | Glossary On
Versions: 1 2 3 4 5 6 7 8 9 10 11 12 13 14 15 16 17 18 19 20 21 22 23 24 25 26 27 28 29 30 31 32 33 34 35 36 37 38 39 40 41 42 43 44 45 46 47 48 49 50
000
ASUS44 KMEG 020510
RWRTN
TENNESSEE HOURLY STATE WEATHER ROUNDUP
NATIONAL WEATHER SERVICE MEMPHIS TN
1200 AM CDT SUN AUG 02 2015

TNZ002-004-019-021-049-052-054-088>092-020600-
WEST TENNESSEE

CITY           SKY/WX    TMP DP  RH WIND       PRES   REMARKS
MEMPHIS INTL   PTCLDY    81  67  62 CALM      29.97S
NWS MEMPHIS      N/A     74 N/A N/A MISG        N/A
JACKSON        CLEAR     73  69  87 CALM      29.98S
DYERSBURG        N/A    N/A N/A N/A MISG        N/A
PARIS          CLEAR     70  68  94 CALM      30.00S
LEXINGTON      CLEAR     73  72  94 N3        29.98S
$$

TNZ008-025-027-028-033-062-065-066-020600-
NORTH MIDDLE TENNESSEE

CITY           SKY/WX    TMP DP  RH WIND       PRES   REMARKS
NASHVILLE      CLEAR     75  55  49 CALM      30.00S
CLARKSVILLE    CLEAR     68  64  87 CALM      29.99S
SMYRNA         CLEAR     70  64  81 CALM      30.01S
CROSSVILLE     PTCLDY    68  61  78 CALM      30.06S
$$

TNZ061-075-076-078-094-096-097-020600-
SOUTH MIDDLE TENNESSEE

CITY           SKY/WX    TMP DP  RH WIND       PRES   REMARKS
FAYETTEVILLE   CLEAR     72  63  73 NE5       30.00S
TULLAHOMA      CLEAR     73  64  73 CALM      30.02S
WINCHESTER     CLEAR     66  64  94 CALM      30.01S
MCMINNVILLE    CLEAR     66  66 100 CALM      30.02S
COLUMBIA       CLEAR     73  73 100 CALM      29.99S
SHELBYVILLE    CLEAR     70  66  88 N3        30.01S
$$

TNZ017-018-042-046-047-020600-
NORTHEAST TENNESSEE

CITY           SKY/WX    TMP DP  RH WIND       PRES   REMARKS
TRI CITIES     PTCLDY    64  61  90 N5        30.02S
ELIZABETHTON   CLEAR     61  59  94 CALM      30.04S
$$

TNZ012-013-036-069-073-074-020600-
CENTRAL EAST TENNESSEE

CITY           SKY/WX    TMP DP  RH WIND       PRES   REMARKS
KNOXVILLE      PTCLDY    72  66  81 CALM      29.99S
OAK RIDGE      CLEAR     69  64  84 CALM      30.01S
GATLINBURG     CLEAR     66  61  82 CALM      30.00S
MORRISTOWN     CLEAR     70  64  83 CALM      30.02S
$$

TNZ083-085-099-020600-
SOUTHEAST TENNESSEE

CITY           SKY/WX    TMP DP  RH WIND       PRES   REMARKS
CHATTANOOGA    CLEAR     74  67  78 CALM      29.97F
$$

SKY/WX REPORTED AS FAIR MEANS FEW OR NO CLOUDS BELOW
12 THOUSAND FEET.



USA.gov is the U.S. government's official web portal to all federal, state and local government web resources and services.